Regional Weather Roundup
Issued by NWS

Home | Current Version | Previous Version | Text Only | Print | Product List | Glossary Off
Versions: 1 2 3 4 5 6 7 8 9 10 11 12 13 14 15 16 17 18 19 20 21 22 23 24 25 26 27 28 29 30 31 32 33 34 35 36 37 38 39 40 41 42 43 44 45 46 47 48 49 50

000
ASUS45 KCYS 040610
RWRWY

WYOMING REGIONAL WEATHER ROUNDUP
NATIONAL WEATHER SERVICE CHEYENNE WY
1100 PM MST TUE MAR 03 2015

NOTE:  "FAIR" INDICATES FEW OR NO CLOUDS BELOW 12,000 FEET
WITH NO SIGNIFICANT WEATHER AND/OR OBSTRUCTIONS TO VISIBILITY.

WYZ001-040700-
YELLOWSTONE NATIONAL PARK

CITY           SKY/WX    TMP DP  RH WIND       PRES   REMARKS
LK YELLOWSTONE   N/A     -4 -10  75 NW3       29.89R
6HR MIN TEMP:  -7; 6HR MAX TEMP:  14;

W YELLOWSTONE  NOT AVBL

$$
WYZ002>013-054>058-071-098>099-040700-
NORTHERN WYOMING

CITY           SKY/WX    TMP DP  RH WIND       PRES   REMARKS
JACKSON        CLOUDY    12   3  67 E3        29.91S
CODY           FAIR       3   0  85 SW9       30.01S WCI -11
GREYBULL       FAIR       8   0  69 CALM      30.09R
6HR MIN TEMP:   7; 6HR MAX TEMP:  21;

WORLAND        FAIR       4  -2  76 S9        30.08R WCI -10
6HR MIN TEMP:   3; 6HR MAX TEMP:  19;

SHERIDAN       FAIR       2  -8  63 NW6       30.07R WCI  -9
6HR MIN TEMP:  -6; 6HR MAX TEMP:   8;

BUFFALO        FAIR       3  -8  60 W3        30.00R
6HR MIN TEMP:   0; 6HR MAX TEMP:   6;

GILLETTE       FAIR      -1  -7  75 W9        30.02R WCI -16
6HR MIN TEMP:  -3; 6HR MAX TEMP:   9;

HULETT         FAIR       5  -2  72 SW12      30.01R WCI -11
NEWCASTLE      FAIR       5  -2  72 NW7       30.04R WCI  -7

$$
WYZ014>020-022>026-101>103-040700-
CENTRAL WYOMING

CITY           SKY/WX    TMP DP  RH WIND       PRES   REMARKS
BIG PINEY      FAIR      12   1  61 N13       29.88R WCI  -3
6HR MIN TEMP:  11; 6HR MAX TEMP:  26;

PINEDALE       FAIR      -2  -9  71 NW6       29.88R WCI -14
DUBOIS         CLOUDY    -6  -9  84 CALM      29.87R
LANDER         CLOUDY     5  -3  69 W9        30.00R WCI  -9
6HR MIN TEMP:   5; 6HR MAX TEMP:  11;

RIVERTON       FAIR       4  -2  76 MISG      30.02R
6HR MIN TEMP:   4; 6HR MAX TEMP:  11;

CASPER         FAIR     -11 -15  82 W5        30.00R WCI -23
6HR MIN TEMP: -13; 6HR MAX TEMP:  12;

DOUGLAS        CLOUDY    -2  -7  79 CALM      30.03R
6HR MIN TEMP:  -7; 6HR MAX TEMP:  11; 6HR PCP: TRACE;


$$
WYZ021-027>030-104>119-040700-
SOUTHERN WYOMING

CITY           SKY/WX    TMP DP  RH WIND       PRES   REMARKS
EVANSTON       FAIR      13   8  81 S5        29.91R WCI   5
6HR MIN TEMP:  10; 6HR MAX TEMP:  24;

FORT BRIDGER   FAIR      15  11  85 SW13      29.93R WCI   1
ROCK SPRINGS   FAIR       5   1  83 NE7       29.89R WCI  -7
6HR MIN TEMP:   3; 6HR MAX TEMP:  13;

DIXON          CLOUDY     8   5  87 CALM      29.92R
RAWLINS        LGT SNOW   5   1  83 NW5       29.89R FOG     WCI  -4
6HR MIN TEMP:  -3; 6HR MAX TEMP:  10; 6HR PCP:  0.01;

SARATOGA       LGT SNOW  10   7  85 N7        29.86R WCI   0
LARAMIE        FLURRIES   4   0  83 N8        29.82R WCI  -9
6HR MIN TEMP:   3; 6HR MAX TEMP:  13; 6HR PCP:  0.04;

CHEYENNE       LGT SNOW   7   2  80 N7        29.90R WCI  -5
6HR MIN TEMP:   7; 6HR MAX TEMP:  11; 6HR PCP:  0.03;

TORRINGTON     FAIR       8   3  80 N7        30.05R WCI  -3
6HR MIN TEMP:   8; 6HR MAX TEMP:  16; 6HR PCP: TRACE;

PINE BLUFFS    FLURRIES  12   9  85 N7        29.98R WCI   2

$$



USA.gov is the U.S. government's official web portal to all federal, state and local government web resources and services.